When you browse on this site, cookies collect data to enhance your experience and personalize the content and advertising you see.
Visit our Privacy Policy to learn more. By continuing to use the site, you agree to this use of cookies and data.
  • en Suisse
  • Liste des pays
  • À 7 jours
  • Température de l'eau
  • Carte satellitaire
  • Carte météo
  • Widgets météo
  • user-avatar
    Se connecter

    Météo par heure à Bad Kreuznach

    Ce jour, 20 Juillet, Samedi

    Heure Température Précipitation Vent Pression Humidité
    00:00 +20°C° 0 mm 1 m/s 748 mmHg 81%
    01:00 +19°C° 0 mm 1 m/s 748 mmHg 81%
    02:00 +19°C° 0 mm 1 m/s 748 mmHg 83%
    03:00 +19°C° 0 mm 1 m/s 748 mmHg 84%
    04:00 +19°C° 0 mm 1 m/s 747 mmHg 86%
    05:00 +20°C° 0 mm 1 m/s 747 mmHg 83%
    06:00 +21°C° 0 mm 1 m/s 747 mmHg 80%
    07:00 +22°C° 0 mm 1 m/s 747 mmHg 74%
    08:00 +24°C° 0 mm 2 m/s 747 mmHg 69%
    09:00 +26°C° 0 mm 3 m/s 747 mmHg 64%
    10:00 +27°C° 0 mm 3 m/s 747 mmHg 60%
    11:00 +28°C° 0 mm 4 m/s 747 mmHg 56%
    12:00 +29°C° 0 mm 5 m/s 747 mmHg 53%
    13:00 +30°C° 0 mm 5 m/s 747 mmHg 49%
    14:00 +32°C° 0.1 mm 5 m/s 747 mmHg 48%
    15:00 +32°C° 0.1 mm 6 m/s 747 mmHg 46%
    16:00 +33°C° 0.1 mm 6 m/s 747 mmHg 45%
    17:00 +30°C° 0 mm 5 m/s 747 mmHg 51%
    18:00 +28°C° 0 mm 4 m/s 747 mmHg 58%
    19:00 +27°C° 0 mm 3 m/s 747 mmHg 64%
    20:00 +25°C° 0.1 mm 3 m/s 748 mmHg 69%
    21:00 +24°C° 0.1 mm 3 m/s 748 mmHg 74%
    22:00 +21°C° 0.1 mm 2 m/s 749 mmHg 79%
    23:00 +20°C° 0 mm 2 m/s 749 mmHg 83%

    Demain, 21 Juillet, Dimanche

    Heure Température Précipitation Vent Pression Humidité
    00:00 +19°C° 0 mm 2 m/s 750 mmHg 87%
    01:00 +19°C° 0 mm 2 m/s 750 mmHg 90%
    02:00 +18°C° 0 mm 2 m/s 750 mmHg 91%
    03:00 +18°C° 0 mm 2 m/s 750 mmHg 92%
    04:00 +17°C° 0 mm 2 m/s 750 mmHg 93%
    05:00 +18°C° 0 mm 2 m/s 751 mmHg 89%
    06:00 +19°C° 0 mm 2 m/s 751 mmHg 84%
    07:00 +19°C° 0 mm 2 m/s 752 mmHg 80%
    08:00 +21°C° 0 mm 3 m/s 752 mmHg 72%
    09:00 +22°C° 0 mm 3 m/s 753 mmHg 63%
    10:00 +23°C° 0 mm 4 m/s 753 mmHg 54%
    11:00 +25°C° 0 mm 4 m/s 753 mmHg 51%
    12:00 +26°C° 0 mm 4 m/s 753 mmHg 47%
    13:00 +27°C° 0 mm 4 m/s 753 mmHg 44%
    14:00 +27°C° 0 mm 4 m/s 754 mmHg 44%
    15:00 +27°C° 0 mm 3 m/s 754 mmHg 44%
    16:00 +28°C° 0 mm 3 m/s 754 mmHg 45%
    17:00 +27°C° 0 mm 3 m/s 754 mmHg 50%
    18:00 +26°C° 0 mm 2 m/s 754 mmHg 55%
    19:00 +25°C° 0 mm 2 m/s 754 mmHg 60%
    20:00 +23°C° 0 mm 1 m/s 754 mmHg 64%
    21:00 +21°C° 0 mm 1 m/s 755 mmHg 69%
    22:00 +20°C° 0 mm 1 m/s 755 mmHg 73%
    23:00 +19°C° 0 mm 1 m/s 755 mmHg 74%

    Après-demain, 22 Juillet, Lundi

    Heure Température Précipitation Vent Pression Humidité
    00:00 +19°C° 0 mm 1 m/s 755 mmHg 76%
    01:00 +18°C° 0 mm 1 m/s 755 mmHg 77%
    02:00 +16°C° 0 mm 0 m/s 755 mmHg 78%
    03:00 +16°C° 0 mm 0 m/s 755 mmHg 78%
    04:00 +16°C° 0 mm 0 m/s 755 mmHg 79%
    05:00 +17°C° 0 mm 0 m/s 755 mmHg 76%
    06:00 +18°C° 0 mm 0 m/s 755 mmHg 73%
    07:00 +19°C° 0 mm 0 m/s 755 mmHg 70%
    08:00 +21°C° 0 mm 0 m/s 755 mmHg 64%
    09:00 +23°C° 0 mm 0 m/s 756 mmHg 58%
    10:00 +27°C° 0 mm 1 m/s 756 mmHg 52%
    11:00 +28°C° 0 mm 1 m/s 756 mmHg 48%
    12:00 +29°C° 0 mm 1 m/s 755 mmHg 44%
    13:00 +30°C° 0 mm 1 m/s 755 mmHg 40%
    14:00 +30°C° 0 mm 1 m/s 755 mmHg 39%
    15:00 +30°C° 0 mm 1 m/s 755 mmHg 38%
    16:00 +30°C° 0 mm 1 m/s 754 mmHg 37%
    17:00 +29°C° 0 mm 1 m/s 754 mmHg 43%
    18:00 +26°C° 0 mm 0 m/s 754 mmHg 48%
    19:00 +25°C° 0 mm 0 m/s 754 mmHg 53%
    20:00 +24°C° 0 mm 0 m/s 754 mmHg 55%
    21:00 +22°C° 0 mm 0 m/s 755 mmHg 57%
    22:00 +22°C° 0 mm 1 m/s 755 mmHg 59%
    23:00 +19°C° 0 mm 0 m/s 755 mmHg 62%

    23 Juillet, Mardi

    Heure Température Précipitation Vent Pression Humidité
    00:00 +19°C° 0 mm 0 m/s 754 mmHg 64%
    01:00 +18°C° 0 mm 0 m/s 754 mmHg 66%
    02:00 +18°C° 0 mm 0 m/s 754 mmHg 68%
    03:00 +20°C° 0 mm 1 m/s 754 mmHg 69%
    04:00 +19°C° 0 mm 1 m/s 754 mmHg 71%
    05:00 +20°C° 0 mm 1 m/s 754 mmHg 69%
    06:00 +21°C° 0 mm 1 m/s 754 mmHg 68%
    07:00 +23°C° 0 mm 1 m/s 754 mmHg 66%
    08:00 +24°C° 0 mm 2 m/s 754 mmHg 60%
    09:00 +26°C° 0 mm 2 m/s 754 mmHg 54%
    10:00 +28°C° 0 mm 3 m/s 754 mmHg 47%
    11:00 +30°C° 0 mm 3 m/s 753 mmHg 44%
    12:00 +31°C° 0 mm 3 m/s 753 mmHg 40%
    13:00 +33°C° 0 mm 3 m/s 752 mmHg 37%
    14:00 +33°C° 0 mm 3 m/s 752 mmHg 35%
    15:00 +34°C° 0 mm 2 m/s 752 mmHg 34%
    16:00 +34°C° 0 mm 2 m/s 751 mmHg 33%
    17:00 +32°C° 0 mm 2 m/s 751 mmHg 39%
    18:00 +31°C° 0 mm 2 m/s 751 mmHg 45%
    19:00 +30°C° 0 mm 2 m/s 751 mmHg 51%
    20:00 +28°C° 0 mm 1 m/s 751 mmHg 55%
    21:00 +26°C° 0 mm 1 m/s 751 mmHg 59%
    22:00 +24°C° 0 mm 1 m/s 751 mmHg 63%
    23:00 +23°C° 0 mm 1 m/s 751 mmHg 65%

    24 Juillet, Mercredi

    Heure Température Précipitation Vent Pression Humidité
    00:00 +23°C° 0 mm 1 m/s 751 mmHg 67%
    01:00 +22°C° 0 mm 1 m/s 751 mmHg 69%
    02:00 +22°C° 0 mm 1 m/s 751 mmHg 70%
    03:00 +21°C° 0 mm 1 m/s 751 mmHg 72%
    04:00 +21°C° 0 mm 1 m/s 751 mmHg 74%
    05:00 +22°C° 0 mm 1 m/s 751 mmHg 71%
    06:00 +23°C° 0 mm 1 m/s 751 mmHg 68%
    07:00 +24°C° 0 mm 1 m/s 751 mmHg 66%
    08:00 +26°C° 0 mm 2 m/s 751 mmHg 61%
    09:00 +28°C° 0 mm 2 m/s 751 mmHg 56%
    10:00 +30°C° 0 mm 3 m/s 751 mmHg 51%
    11:00 +31°C° 0 mm 3 m/s 751 mmHg 47%
    12:00 +33°C° 0 mm 3 m/s 750 mmHg 42%
    13:00 +34°C° 0 mm 2 m/s 750 mmHg 38%
    14:00 +35°C° 0 mm 2 m/s 750 mmHg 37%
    15:00 +35°C° 0 mm 2 m/s 750 mmHg 36%
    16:00 +35°C° 0 mm 2 m/s 749 mmHg 34%
    17:00 +34°C° 0 mm 2 m/s 749 mmHg 40%
    18:00 +32°C° 0 mm 2 m/s 749 mmHg 46%
    19:00 +31°C° 0 mm 2 m/s 749 mmHg 51%
    20:00 +29°C° 0 mm 1 m/s 749 mmHg 56%
    21:00 +27°C° 0 mm 1 m/s 749 mmHg 60%
    22:00 +25°C° 0 mm 1 m/s 750 mmHg 64%
    23:00 +25°C° 0 mm 1 m/s 750 mmHg 67%

    25 Juillet, Jeudi

    Heure Température Précipitation Vent Pression Humidité
    00:00 +24°C° 0 mm 1 m/s 749 mmHg 69%
    01:00 +24°C° 0 mm 1 m/s 749 mmHg 72%
    02:00 +23°C° 0 mm 1 m/s 749 mmHg 73%
    03:00 +23°C° 0 mm 1 m/s 749 mmHg 75%
    04:00 +23°C° 0 mm 1 m/s 749 mmHg 76%
    05:00 +24°C° 0 mm 2 m/s 749 mmHg 73%
    06:00 +25°C° 0 mm 2 m/s 749 mmHg 71%
    07:00 +26°C° 0 mm 2 m/s 749 mmHg 68%
    08:00 +27°C° 0 mm 3 m/s 749 mmHg 60%
    09:00 +29°C° 0 mm 4 m/s 749 mmHg 53%
    10:00 +32°C° 0 mm 4 m/s 749 mmHg 46%
    11:00 +33°C° 0 mm 4 m/s 748 mmHg 43%
    12:00 +34°C° 0 mm 4 m/s 748 mmHg 39%
    13:00 +36°C° 0 mm 4 m/s 748 mmHg 36%
    14:00 +36°C° 0 mm 4 m/s 747 mmHg 35%
    15:00 +36°C° 0 mm 4 m/s 747 mmHg 34%
    16:00 +37°C° 0 mm 3 m/s 747 mmHg 33%
    17:00 +36°C° 0 mm 3 m/s 747 mmHg 40%
    18:00 +34°C° 0 mm 3 m/s 746 mmHg 46%
    19:00 +33°C° 0 mm 3 m/s 746 mmHg 52%
    20:00 +30°C° 0 mm 2 m/s 746 mmHg 58%
    21:00 +29°C° 0 mm 2 m/s 746 mmHg 63%
    22:00 +27°C° 0 mm 1 m/s 746 mmHg 69%
    23:00 +26°C° 0 mm 1 m/s 746 mmHg 72%
    Voir plus